timestamp,surface_pressure_avg,surface_temp_avg,battery_voltage,lat,long
2018-07-14 00:00:00+00:00,384.963,9.25,13.21,47.84626,-54.09684
2018-07-14 00:10:00+00:00,381.2612,9.29,13.05,47.84626,-54.09684
2018-07-14 00:20:00+00:00,372.9629,9.3,13.13,47.84626,-54.09684
2018-07-14 00:30:00+00:00,374.5796,9.34,13.13,47.84626,-54.09684
2018-07-14 00:40:00+00:00,377.1946,9.39,13.13,47.84626,-54.09684
2018-07-14 00:50:00+00:00,366.3445,9.59,13.13,47.84626,-54.09684
2018-07-14 01:00:00+00:00,356.9379,9.4,13.05,47.84626,-54.09684
2018-07-14 01:10:00+00:00,362.0264,9.4,13.05,47.84626,-54.09684
2018-07-14 01:20:00+00:00,359.3046,9.4,13.05,47.84626,-54.09684
2018-07-14 01:30:00+00:00,347.6229,9.5,13.05,47.84626,-54.09684
2018-07-14 01:40:00+00:00,345.6246,9.5,13.13,47.84626,-54.09684
2018-07-14 01:50:00+00:00,346.8263,9.5,13.13,47.84626,-54.09684
2018-07-14 02:00:00+00:00,333.2014,9.66,13.05,47.84626,-54.09684
2018-07-14 02:10:00+00:00,316.428,10.2,12.97,47.84626,-54.09684
2018-07-14 02:20:00+00:00,317.258,10.1,13.05,47.84626,-54.09684
2018-07-14 02:30:00+00:00,314.9064,10.57,13.05,47.84626,-54.09684
2018-07-14 02:40:00+00:00,295.5263,11.19,13.05,47.84626,-54.09684
2018-07-14 02:50:00+00:00,288.3748,11.4,13.13,47.84626,-54.09684
2018-07-14 03:00:00+00:00,283.0147,11.4,13.05,47.84626,-54.09684
2018-07-14 03:10:00+00:00,266.3464,11.53,12.97,47.84626,-54.09684
2018-07-14 03:20:00+00:00,251.8764,11.7,13.05,47.84626,-54.09684
2018-07-14 03:30:00+00:00,245.8315,11.7,13.05,47.84626,-54.09684
2018-07-14 03:40:00+00:00,232.9047,11.81,13.05,47.84626,-54.09684
2018-07-14 03:50:00+00:00,217.5098,11.95,13.05,47.84626,-54.09684
2018-07-14 04:00:00+00:00,207.9214,12.0,13.05,47.84626,-54.09684
2018-07-14 04:10:00+00:00,200.4331,12.04,12.97,47.84626,-54.09684
2018-07-14 04:20:00+00:00,190.8115,12.02,13.05,47.84626,-54.09684
2018-07-14 04:30:00+00:00,184.5881,12.0,13.05,47.84626,-54.09684
2018-07-14 04:40:00+00:00,178.2531,12.0,13.05,47.84626,-54.09684
2018-07-14 04:50:00+00:00,164.9898,12.0,13.05,47.84626,-54.09684
2018-07-14 05:00:00+00:00,157.1315,12.07,13.05,47.84626,-54.09684
2018-07-14 05:10:00+00:00,159.7165,12.17,12.97,47.84626,-54.09684
2018-07-14 05:20:00+00:00,156.4382,12.23,13.05,47.84626,-54.09684
2018-07-14 05:30:00+00:00,145.9948,12.3,13.05,47.84626,-54.09684
2018-07-14 05:40:00+00:00,145.3215,12.39,13.05,47.84626,-54.09684
2018-07-14 05:50:00+00:00,150.1415,12.3,13.05,47.84626,-54.09684
2018-07-14 06:00:00+00:00,147.6665,12.3,12.97,47.84626,-54.09684
2018-07-14 06:10:00+00:00,143.9849,12.24,12.97,47.84626,-54.09684
2018-07-14 06:20:00+00:00,149.6365,12.3,12.97,47.84626,-54.09684
2018-07-14 06:30:00+00:00,150.8416,12.3,12.97,47.84626,-54.09684
2018-07-14 06:40:00+00:00,145.8082,12.2,13.05,47.84626,-54.09684
2018-07-14 06:50:00+00:00,145.9315,12.21,13.05,47.84626,-54.09684
2018-07-14 07:00:00+00:00,153.0432,12.28,12.97,47.84626,-54.09684
2018-07-14 07:10:00+00:00,156.4765,12.3,12.89,47.84626,-54.09684
2018-07-14 07:20:00+00:00,157.3365,12.3,12.97,47.84626,-54.09684
2018-07-14 07:30:00+00:00,161.3865,12.3,12.97,47.84626,-54.09684
2018-07-14 07:40:00+00:00,165.4198,12.3,12.97,47.84626,-54.09684
2018-07-14 07:50:00+00:00,170.9532,12.3,12.97,47.84626,-54.09684
2018-07-14 08:00:00+00:00,174.7648,12.3,12.97,47.84626,-54.09684
2018-07-14 08:10:00+00:00,178.0832,12.3,12.89,47.84626,-54.09684
2018-07-14 08:20:00+00:00,185.8248,12.3,12.97,47.84626,-54.09684
2018-07-14 08:30:00+00:00,193.5698,12.3,12.97,47.84626,-54.09684
2018-07-14 08:40:00+00:00,199.6981,12.3,12.97,47.84626,-54.09684
2018-07-14 08:50:00+00:00,204.8548,12.29,13.05,47.84626,-54.09684
2018-07-14 09:00:00+00:00,207.1614,12.1,12.97,47.84626,-54.09684
2018-07-14 09:10:00+00:00,216.3798,12.1,12.89,47.84626,-54.09684
2018-07-14 09:20:00+00:00,227.1315,12.1,12.97,47.84626,-54.09684
2018-07-14 09:30:00+00:00,235.3715,12.09,12.97,47.84626,-54.09684
2018-07-14 09:40:00+00:00,242.1531,12.09,13.05,47.84626,-54.09684
2018-07-14 09:50:00+00:00,248.0514,12.06,13.05,47.84626,-54.09684
2018-07-14 10:00:00+00:00,256.4764,12.0,13.05,47.84626,-54.09684
2018-07-14 10:10:00+00:00,267.4064,11.9,12.97,47.84626,-54.09684
2018-07-14 10:20:00+00:00,276.3447,11.89,13.05,47.84626,-54.09684
2018-07-14 10:30:00+00:00,281.1747,11.9,13.05,47.84626,-54.09684
2018-07-14 10:40:00+00:00,292.2397,11.88,13.13,47.84626,-54.09684
2018-07-14 10:50:00+00:00,305.1047,11.7,13.21,47.84626,-54.09684
2018-07-14 11:00:00+00:00,309.5347,11.79,13.21,47.84626,-54.09684
2018-07-14 11:10:00+00:00,314.1697,11.58,13.21,47.84626,-54.09684
2018-07-14 11:20:00+00:00,330.7047,11.2,13.37,47.84626,-54.09684
2018-07-14 11:30:00+00:00,335.5264,11.3,13.44,47.84626,-54.09684
2018-07-14 11:40:00+00:00,332.783,11.38,13.6,47.84626,-54.09684
2018-07-14 11:50:00+00:00,337.5746,11.3,13.68,47.84626,-54.09684
2018-07-14 12:00:00+00:00,346.2946,11.2,13.68,47.84626,-54.09684
2018-07-14 12:10:00+00:00,344.8229,11.28,13.68,47.84626,-54.09684
2018-07-14 12:20:00+00:00,337.973,11.28,13.84,47.84626,-54.09684
2018-07-14 12:30:00+00:00,342.6429,11.1,13.84,47.84626,-54.09684
2018-07-14 12:40:00+00:00,348.353,11.21,13.92,47.84626,-54.09684
2018-07-14 12:50:00+00:00,342.7863,11.36,14.08,47.84626,-54.09684
2018-07-14 13:00:00+00:00,337.1113,11.4,14.16,47.84626,-54.09684
2018-07-14 13:10:00+00:00,336.8796,11.4,14.08,47.84626,-54.09684
2018-07-14 13:20:00+00:00,338.7713,11.4,14.32,47.84626,-54.09684
2018-07-14 13:30:00+00:00,331.728,11.49,14.32,47.84626,-54.09684
2018-07-14 13:40:00+00:00,327.503,11.5,14.32,47.84626,-54.09684
2018-07-14 13:50:00+00:00,327.933,11.5,14.32,47.84626,-54.09684
2018-07-14 14:00:00+00:00,322.5363,11.58,14.24,47.84626,-54.09684
2018-07-14 14:10:00+00:00,314.4763,11.65,14.24,47.84626,-54.09684
2018-07-14 14:20:00+00:00,310.8964,11.4,14.48,47.84626,-54.09684
2018-07-14 14:30:00+00:00,307.5996,11.48,14.48,47.84626,-54.09684
2018-07-14 14:40:00+00:00,293.2864,11.73,14.48,47.84626,-54.09684
2018-07-14 14:50:00+00:00,278.7531,11.66,14.56,47.84626,-54.09684
2018-07-14 15:00:00+00:00,276.4081,11.4,14.56,47.84626,-54.09684
2018-07-14 15:10:00+00:00,271.0464,11.58,14.56,47.84626,-54.09684
2018-07-14 15:20:00+00:00,257.2047,12.0,15.04,47.84626,-54.09684
2018-07-14 15:30:00+00:00,246.3915,12.2,14.64,47.84626,-54.09684
2018-07-14 15:40:00+00:00,240.7481,12.14,14.56,47.84626,-54.09684
2018-07-14 15:50:00+00:00,227.8964,12.39,14.56,47.84626,-54.09684
2018-07-14 16:00:00+00:00,211.1914,12.5,14.4,47.84626,-54.09684
2018-07-14 16:10:00+00:00,203.3948,12.5,14.32,47.84626,-54.09684
2018-07-14 16:20:00+00:00,196.8331,12.5,14.4,47.84626,-54.09684
2018-07-14 16:30:00+00:00,181.6447,12.55,14.4,47.84626,-54.09684
2018-07-14 16:40:00+00:00,173.0982,12.58,14.32,47.84626,-54.09684
2018-07-14 16:50:00+00:00,171.4665,12.5,14.32,47.84626,-54.09684
2018-07-14 17:00:00+00:00,160.7298,12.5,14.24,47.84626,-54.09684
2018-07-14 17:10:00+00:00,154.6115,12.5,14.16,47.84626,-54.09684
2018-07-14 17:20:00+00:00,158.9298,12.4,14.24,47.84626,-54.09684
2018-07-14 17:30:00+00:00,157.2982,12.33,14.16,47.84626,-54.09684
2018-07-14 17:40:00+00:00,152.2815,12.3,14.16,47.84626,-54.09684
2018-07-14 17:50:00+00:00,154.2565,12.2,14.16,47.84626,-54.09684
2018-07-14 18:00:00+00:00,158.5415,12.17,14.08,47.84626,-54.09684
2018-07-14 18:10:00+00:00,155.6982,12.19,14.0,47.84626,-54.09684
2018-07-14 18:20:00+00:00,152.2548,12.16,14.08,47.84626,-54.09684
2018-07-14 18:30:00+00:00,155.3348,12.1,14.08,47.84626,-54.09684
2018-07-14 18:40:00+00:00,153.9499,12.1,14.08,47.84626,-54.09684
2018-07-14 18:50:00+00:00,152.3332,12.1,14.16,47.84626,-54.09684
2018-07-14 19:00:00+00:00,161.3548,12.1,14.08,47.84626,-54.09684
2018-07-14 19:10:00+00:00,167.2982,12.0,14.0,47.84626,-54.09684
2018-07-14 19:20:00+00:00,165.3648,12.0,13.92,47.84626,-54.09684
2018-07-14 19:30:00+00:00,169.6215,11.99,13.92,47.84626,-54.09684
2018-07-14 19:40:00+00:00,178.3931,11.9,14.0,47.84626,-54.09684
2018-07-14 19:50:00+00:00,181.9598,11.87,14.0,47.84626,-54.09684
2018-07-14 20:00:00+00:00,187.6148,11.87,13.92,47.84626,-54.09684
2018-07-14 20:10:00+00:00,195.0098,11.86,13.84,47.84626,-54.09684
2018-07-14 20:20:00+00:00,197.0081,11.8,13.92,47.84626,-54.09684
2018-07-14 20:30:00+00:00,195.9815,11.8,13.92,47.84626,-54.09684
2018-07-14 20:40:00+00:00,201.3348,11.8,14.0,47.84626,-54.09684
2018-07-14 20:50:00+00:00,210.9148,11.7,14.0,47.84626,-54.09684
2018-07-14 21:00:00+00:00,217.5247,11.7,13.92,47.84626,-54.09684
2018-07-14 21:10:00+00:00,225.8748,11.7,13.84,47.84626,-54.09684
2018-07-14 21:20:00+00:00,233.4998,11.7,13.84,47.84626,-54.09684
2018-07-14 21:30:00+00:00,240.7681,11.7,13.84,47.84626,-54.09684
2018-07-14 21:40:00+00:00,249.5147,11.6,13.84,47.84626,-54.09684
2018-07-14 21:50:00+00:00,259.4481,11.6,13.84,47.84626,-54.09684
2018-07-14 22:00:00+00:00,264.2747,11.4,13.76,47.84626,-54.09684
2018-07-14 22:10:00+00:00,269.813,11.0,13.68,47.84626,-54.09684
2018-07-14 22:20:00+00:00,280.2781,10.63,13.68,47.84626,-54.09684
2018-07-14 22:30:00+00:00,292.938,10.3,13.6,47.84626,-54.09684
2018-07-14 22:40:00+00:00,299.3763,10.16,13.6,47.84626,-54.09684
2018-07-14 22:50:00+00:00,306.5613,10.17,13.6,47.84626,-54.09684
2018-07-14 23:00:00+00:00,317.1147,10.1,13.44,47.84626,-54.09684
2018-07-14 23:10:00+00:00,330.903,10.0,13.37,47.84626,-54.09684
2018-07-14 23:20:00+00:00,339.313,10.0,13.29,47.84626,-54.09684
2018-07-14 23:30:00+00:00,345.438,10.0,13.29,47.84626,-54.09684
2018-07-14 23:40:00+00:00,353.0162,9.9,13.29,47.84626,-54.09684
2018-07-14 23:50:00+00:00,359.753,10.0,13.29,47.84626,-54.09684
